KF0ZH Weather Reports


Display with metric or nautical units.
time (UTC)temp
F
wind
direction
speed
MPH
gust
MPH
rain 1hr
in
rain 24hr
in
rain mn
in
humidity
%
barometer
mb
20260901142956 74 296 3.0 5.0 0.00 0.00 0.00 81 1013.1
20260901140657 72 217 0.0 4.0 0.00 0.00 0.00 88 1013.2
20260901140527 72 217 0.0 4.0 0.00 0.00 0.00 88 1013.2
20260901140456 72 217 0.0 4.0 0.00 0.00 0.00 88 1013.2
20260901140246 71 247 1.0 5.0 0.00 0.00 0.00 87 1013.2
20260901140028 71 247 1.0 5.0 0.00 0.00 0.00 87 1013.2
20260901135957 71 247 1.0 5.0 0.00 0.00 0.00 87 1013.2
20260901135224 70 265 0.0 0.0 0.00 0.00 0.00 96 1013.2
20260901134958 70 265 0.0 0.0 0.00 0.00 0.00 96 1013.2
20260901134712 70 265 0.0 0.0 0.00 0.00 0.00 97 1013.2
20260901134547 70 265 0.0 0.0 0.00 0.00 0.00 97 1013.2
20260901134457 70 265 0.0 0.0 0.00 0.00 0.00 97 1013.2
20260901132327 67 265 0.0 0.0 0.00 0.00 0.00 99 1013.4
20260901132228 67 265 0.0 0.0 0.00 0.00 0.00 99 1013.4
20260901132031 67 265 0.0 0.0 0.00 0.00 0.00 99 1013.4
20260901131956 67 265 0.0 0.0 0.00 0.00 0.00 99 1013.4
20260901131710 66 265 0.0 0.0 0.00 0.00 0.00 99 1013.3
20260901131531 66 265 0.0 0.0 0.00 0.00 0.00 99 1013.3
20260901131456 66 265 0.0 0.0 0.00 0.00 0.00 99 1013.3
20260901125046 65 265 0.0 0.0 0.00 0.00 0.00 99 1013.1
20260901124956 65 265 0.0 0.0 0.00 0.00 0.00 99 1013.1
20260901124701 65 265 0.0 0.0 0.00 0.00 0.00 79 1013.0
20260901124630 65 265 0.0 0.0 0.00 0.00 0.00 79 1013.0
20260901124458 65 265 0.0 0.0 0.00 0.00 0.00 79 1013.0
20260901123956 65 265 0.0 0.0 0.00 0.00 0.00 99 1013.0
20260901123902 65 265 0.0 0.0 0.00 0.00 0.00 99 1013.0
20260901123810 65 265 0.0 0.0 0.00 0.00 0.00 99 1013.0
20260901123737 65 265 0.0 0.0 0.00 0.00 0.00 99 1013.0
20260901123456 65 265 0.0 0.0 0.00 0.00 0.00 99 1013.0
20260901123047 64 265 0.0 0.0 0.00 0.00 0.00 99 1013.0
20260901122956 64 265 0.0 0.0 0.00 0.00 0.00 99 1013.0
20260901121310 64 265 0.0 0.0 0.00 0.00 0.00 99 1012.9
20260901121106 64 265 0.0 0.0 0.00 0.00 0.00 99 1012.9
20260901121032 64 265 0.0 0.0 0.00 0.00 0.00 99 1012.9
20260901120956 64 265 0.0 0.0 0.00 0.00 0.00 99 1012.9
20260901120100 64 265 0.0 0.0 0.00 0.00 0.00 99 1012.8
20260901120029 64 265 0.0 0.0 0.00 0.00 0.00 99 1012.8
20260901115957 64 265 0.0 0.0 0.00 0.00 0.00 99 1012.8
20260901114956 63 265 0.0 0.0 0.00 0.00 0.00 99 1012.7
20260901114750 63 265 0.0 0.0 0.00 0.00 0.00 99 1012.6
20260901114715 63 265 0.0 0.0 0.00 0.00 0.00 99 1012.6
20260901114537 63 265 0.0 0.0 0.00 0.00 0.00 99 1012.6
20260901114458 63 265 0.0 0.0 0.00 0.00 0.00 99 1012.6
20260901113539 63 265 0.0 0.0 0.00 0.00 0.00 99 1012.5
20260901113458 63 265 0.0 0.0 0.00 0.00 0.00 99 1012.5
20260901113418 63 265 0.0 0.0 0.00 0.00 0.00 99 1012.5
20260901113223 63 265 0.0 0.0 0.00 0.00 0.00 99 1012.5
20260901113112 63 265 0.0 0.0 0.00 0.00 0.00 99 1012.5
20260901113042 63 265 0.0 0.0 0.00 0.00 0.00 99 1012.5
20260901112956 63 265 0.0 0.0 0.00 0.00 0.00 99 1012.5
20260901112713 63 265 0.0 0.0 0.00 0.00 0.00 99 1012.3
20260901112552 63 265 0.0 0.0 0.00 0.00 0.00 99 1012.3
20260901112458 63 265 0.0 0.0 0.00 0.00 0.00 99 1012.3
20260901110158 64 265 0.0 0.0 0.00 0.00 0.00 99 1012.0
20260901105957 64 265 0.0 0.0 0.00 0.00 0.00 99 1012.0
20260901105704 64 265 0.0 0.0 0.00 0.00 0.00 99 1011.9
20260901105500 64 265 0.0 0.0 0.00 0.00 0.00 99 1011.9
20260901104541 64 265 0.0 0.0 0.00 0.00 0.00 99 1011.9
20260901104456 64 265 0.0 0.0 0.00 0.00 0.00 99 1011.9
20260901103456 64 265 0.0 0.0 0.00 0.00 0.00 99 1011.9
20260901103325 64 265 0.0 0.0 0.00 0.00 0.00 99 1011.8
20260901103153 64 265 0.0 0.0 0.00 0.00 0.00 99 1011.8
20260901103116 64 265 0.0 0.0 0.00 0.00 0.00 99 1011.8
20260901102956 64 265 0.0 0.0 0.00 0.00 0.00 99 1011.8
20260901101140 64 265 0.0 0.0 0.00 0.00 0.00 99 1011.7
20260901100957 64 265 0.0 0.0 0.00 0.00 0.00 99 1011.7
20260901100528 64 265 0.0 0.0 0.00 0.00 0.00 99 1011.7
20260901100457 64 265 0.0 0.0 0.00 0.00 0.00 99 1011.7
20260901095141 64 265 0.0 0.0 0.00 0.00 0.00 99 1011.8
20260901095109 64 265 0.0 0.0 0.00 0.00 0.00 99 1011.8
20260901094956 64 265 0.0 0.0 0.00 0.00 0.00 99 1011.8
20260901094414 64 265 0.0 0.0 0.00 0.00 0.00 99 1011.8
20260901094328 64 265 0.0 0.0 0.00 0.00 0.00 99 1011.8
20260901094256 64 265 0.0 0.0 0.00 0.00 0.00 99 1011.8
20260901094151 64 265 0.0 0.0 0.00 0.00 0.00 99 1011.8
20260901094101 64 265 0.0 0.0 0.00 0.00 0.00 99 1011.8
20260901094027 64 265 0.0 0.0 0.00 0.00 0.00 99 1011.8
20260901093956 64 265 0.0 0.0 0.00 0.00 0.00 99 1011.8
20260901093307 64 265 0.0 0.0 0.00 0.00 0.00 99 1011.6
20260901093108 64 265 0.0 0.0 0.00 0.00 0.00 99 1011.6
20260901093029 64 265 0.0 0.0 0.00 0.00 0.00 99 1011.6
20260901092957 64 265 0.0 0.0 0.00 0.00 0.00 99 1011.6
20260901092458 65 265 0.0 0.0 0.00 0.00 0.00 99 1011.6
20260901091610 65 265 0.0 0.0 0.00 0.00 0.00 99 1011.5
20260901091457 65 265 0.0 0.0 0.00 0.00 0.00 99 1011.5
20260901091032 65 265 0.0 0.0 0.00 0.00 0.00 99 1011.5
20260901090956 65 265 0.0 0.0 0.00 0.00 0.00 99 1011.5
20260901090456 65 265 0.0 0.0 0.00 0.00 0.00 99 1011.5
20260901090358 65 265 0.0 0.0 0.00 0.00 0.00 99 1011.4
20260901090052 65 265 0.0 0.0 0.00 0.00 0.00 99 1011.4
20260901085957 65 265 0.0 0.0 0.00 0.00 0.00 99 1011.4
20260901085242 65 265 0.0 0.0 0.00 0.00 0.00 99 1011.5
20260901085051 65 265 0.0 0.0 0.00 0.00 0.00 99 1011.5
20260901085004 65 265 0.0 0.0 0.00 0.00 0.00 99 1011.5
20260901084650 65 265 0.0 0.0 0.00 0.00 0.00 99 1011.6
20260901084612 65 265 0.0 0.0 0.00 0.00 0.00 99 1011.6
20260901084456 65 265 0.0 0.0 0.00 0.00 0.00 99 1011.6
20260901084103 65 265 0.0 0.0 0.00 0.00 0.00 99 1011.8
20260901083956 65 265 0.0 0.0 0.00 0.00 0.00 99 1011.8
20260901083303 65 265 0.0 0.0 0.00 0.00 0.00 99 1011.7
20260901083028 65 265 0.0 0.0 0.00 0.00 0.00 99 1011.7
20260901082956 65 265 0.0 0.0 0.00 0.00 0.00 99 1011.7
20260901082644 65 265 0.0 0.0 0.00 0.00 0.00 99 1011.6
20260901082530 65 265 0.0 0.0 0.00 0.00 0.00 99 1011.6
20260901082457 65 265 0.0 0.0 0.00 0.00 0.00 99 1011.6
20260901082028 65 265 0.0 0.0 0.00 0.00 0.00 99 1011.5
20260901081957 65 265 0.0 0.0 0.00 0.00 0.00 99 1011.5
20260901081824 65 265 0.0 0.0 0.00 0.00 0.00 99 1011.5
20260901081751 65 265 0.0 0.0 0.00 0.00 0.00 99 1011.5
20260901081529 65 265 0.0 0.0 0.00 0.00 0.00 99 1011.5
20260901081456 65 265 0.0 0.0 0.00 0.00 0.00 99 1011.5
20260901081200 65 265 0.0 0.0 0.00 0.00 0.00 99 1011.5
20260901080957 65 265 0.0 0.0 0.00 0.00 0.00 99 1011.5
20260901080750 66 265 0.0 0.0 0.00 0.00 0.00 99 1011.6
20260901080548 66 265 0.0 0.0 0.00 0.00 0.00 99 1011.6
20260901080459 66 265 0.0 0.0 0.00 0.00 0.00 99 1011.6
20260901080431 66 265 0.0 0.0 0.00 0.00 0.00 99 1011.6
20260901080132 66 265 0.0 0.0 0.00 0.00 0.00 99 1011.6
20260901080039 66 265 0.0 0.0 0.00 0.00 0.00 99 1011.6
20260901075958 66 265 0.0 0.0 0.00 0.00 0.00 99 1011.6
20260901075548 66 265 0.0 0.0 0.00 0.00 0.00 99 1011.6
20260901075457 66 265 0.0 0.0 0.00 0.00 0.00 99 1011.6
20260901075318 66 265 0.0 0.0 0.00 0.00 0.00 99 1011.6
20260901075135 66 265 0.0 0.0 0.00 0.00 0.00 99 1011.6
20260901074958 66 265 0.0 0.0 0.00 0.00 0.00 99 1011.6
20260901074602 66 265 0.0 0.0 0.00 0.00 0.00 99 1011.6
20260901074214 66 265 0.0 0.0 0.00 0.00 0.00 99 1011.6
20260901074058 66 265 0.0 0.0 0.00 0.00 0.00 99 1011.6
20260901073957 66 265 0.0 0.0 0.00 0.00 0.00 99 1011.6
20260901073545 66 265 0.0 0.0 0.00 0.00 0.00 99 1011.5
20260901073513 66 265 0.0 0.0 0.00 0.00 0.00 99 1011.5
20260901072458 66 265 0.0 0.0 0.00 0.00 0.00 99 1011.6
20260901072155 67 265 0.0 0.0 0.00 0.00 0.00 99 1011.5
20260901072028 67 265 0.0 0.0 0.00 0.00 0.00 99 1011.5
20260901071958 67 265 0.0 0.0 0.00 0.00 0.00 99 1011.5
20260901071901 67 265 0.0 0.0 0.00 0.00 0.00 99 1011.6
20260901071630 67 265 0.0 0.0 0.00 0.00 0.00 99 1011.6
20260901071532 67 265 0.0 0.0 0.00 0.00 0.00 99 1011.6
20260901071458 67 265 0.0 0.0 0.00 0.00 0.00 99 1011.6
20260901070957 67 265 0.0 0.0 0.00 0.00 0.00 98 1011.7
20260901065958 67 265 0.0 0.0 0.00 0.00 0.00 98 1011.9
20260901065223 68 265 0.0 0.0 0.00 0.00 0.00 98 1011.9
20260901065124 68 265 0.0 0.0 0.00 0.00 0.00 98 1011.9
20260901064957 68 265 0.0 0.0 0.00 0.00 0.00 98 1011.9
20260901064457 68 265 0.0 0.0 0.00 0.00 0.00 97 1011.9
20260901062957 68 265 0.0 0.0 0.00 0.00 0.00 96 1012.1
20260901061957 69 265 0.0 0.0 0.00 0.00 0.00 96 1012.2
20260901061537 69 265 0.0 0.0 0.00 0.00 0.00 96 1012.1
20260901061459 69 265 0.0 0.0 0.00 0.00 0.00 96 1012.1
20260901060957 69 265 0.0 0.0 0.00 0.00 0.00 96 1012.0
20260901054957 69 265 0.0 0.0 0.00 0.00 0.00 94 1011.9
20260901054030 69 265 0.0 0.0 0.00 0.00 0.00 93 1011.8
20260901053959 69 265 0.0 0.0 0.00 0.00 0.00 93 1011.8
20260901052152 70 265 0.0 0.0 0.00 0.00 0.00 93 1011.6
20260901052050 70 265 0.0 0.0 0.00 0.00 0.00 93 1011.6
20260901051958 70 265 0.0 0.0 0.00 0.00 0.00 93 1011.6
20260901045658 70 265 0.0 0.0 0.00 0.00 0.00 90 1011.2
20260901045538 70 265 0.0 0.0 0.00 0.00 0.00 90 1011.2
20260901045504 70 265 0.0 0.0 0.00 0.00 0.00 90 1011.2
20260901044958 70 265 0.0 0.0 0.00 0.00 0.00 90 1011.1
20260901044724 71 265 0.0 0.0 0.00 0.00 0.00 90 1011.1
20260901044644 71 265 0.0 0.0 0.00 0.00 0.00 90 1011.1
20260901044458 71 265 0.0 0.0 0.00 0.00 0.00 90 1011.1
20260901043958 71 265 0.0 0.0 0.00 0.00 0.00 89 1011.0
20260901042656 71 265 0.0 0.0 0.00 0.00 0.00 87 1010.8
20260901042535 71 265 0.0 0.0 0.00 0.00 0.00 87 1010.8
20260901042501 71 265 0.0 0.0 0.00 0.00 0.00 87 1010.8
20260901041458 72 265 0.0 0.0 0.00 0.00 0.00 87 1010.8
20260901041254 72 265 0.0 0.0 0.00 0.00 0.00 87 1010.8
20260901041032 72 265 0.0 0.0 0.00 0.00 0.00 87 1010.8
20260901040958 72 265 0.0 0.0 0.00 0.00 0.00 87 1010.8
20260901040713 72 265 0.0 0.0 0.00 0.00 0.00 86 1011.0
20260901040631 72 265 0.0 0.0 0.00 0.00 0.00 86 1011.0
20260901040458 72 265 0.0 0.0 0.00 0.00 0.00 86 1011.0
20260901034458 73 265 0.0 0.0 0.00 0.00 0.00 85 1011.1
20260901034407 73 265 0.0 0.0 0.00 0.00 0.00 85 1011.1
20260901033959 73 265 0.0 0.0 0.00 0.00 0.00 85 1011.1
20260901032959 73 265 0.0 0.0 0.00 0.00 0.00 85 1011.1
20260901032651 74 265 0.0 0.0 0.00 0.00 0.00 85 1011.1
20260901032458 74 265 0.0 0.0 0.00 0.00 0.00 85 1011.1
20260901032213 74 265 0.0 0.0 0.00 0.00 0.00 84 1011.0
20260901032111 74 265 0.0 0.0 0.00 0.00 0.00 84 1011.0
20260901032031 74 265 0.0 0.0 0.00 0.00 0.00 84 1011.0
20260901031959 74 265 0.0 0.0 0.00 0.00 0.00 84 1011.0
20260901031654 74 265 0.0 0.0 0.00 0.00 0.00 84 1011.0
20260901031601 74 265 0.0 0.0 0.00 0.00 0.00 83 1010.9
20260901031458 74 265 0.0 0.0 0.00 0.00 0.00 84 1011.0
20260901031228 74 265 0.0 0.0 0.00 0.00 0.00 83 1010.9
20260901031013 75 265 0.0 0.0 0.00 0.00 0.00 82 1010.8
20260901030959 74 265 0.0 0.0 0.00 0.00 0.00 83 1010.9
20260901030703 74 265 0.0 0.0 0.00 0.00 0.00 83 1010.9
20260901030503 74 265 0.0 0.0 0.00 0.00 0.00 83 1010.9
20260901030007 74 265 0.0 0.0 0.00 0.00 0.00 83 1010.9
20260901025531 75 265 0.0 0.0 0.00 0.00 0.00 82 1010.8
20260901025459 75 265 0.0 0.0 0.00 0.00 0.00 82 1010.8
20260901025250 75 265 0.0 0.0 0.00 0.00 0.00 82 1010.9
20260901025149 75 265 0.0 0.0 0.00 0.00 0.00 82 1010.9
20260901024959 75 265 0.0 0.0 0.00 0.00 0.00 82 1010.9
20260901023959 76 265 0.0 0.0 0.00 0.00 0.00 80 1010.8
20260901023520 76 265 0.0 0.0 0.00 0.00 0.00 80 1010.8
20260901023324 76 265 0.0 0.0 0.00 0.00 0.00 79 1010.6
20260901021959 76 265 0.0 0.0 0.00 0.00 0.00 79 1010.6
20260901020903 78 265 0.0 0.0 0.00 0.00 0.00 77 1010.5
20260901015500 78 265 0.0 0.0 0.00 0.00 0.00 77 1010.5
20260901014959 78 265 0.0 0.0 0.00 0.00 0.00 76 1010.4
20260901014459 78 265 0.0 0.0 0.00 0.00 0.00 75 1010.3
20260901013213 79 241 0.0 0.0 0.00 0.00 0.00 73 1010.1
20260901013003 79 241 0.0 0.0 0.00 0.00 0.00 73 1010.1
20260901011959 79 239 0.0 3.0 0.00 0.00 0.00 72 1010.1
20260901011932 79 244 0.0 2.0 0.00 0.00 0.00 72 1010.0
20260901011829 79 244 0.0 2.0 0.00 0.00 0.00 72 1010.0
20260901011459 79 244 0.0 2.0 0.00 0.00 0.00 72 1010.0
20260901011153 80 279 0.0 4.0 0.00 0.00 0.00 71 1010.0
20260901011034 80 279 0.0 4.0 0.00 0.00 0.00 71 1010.0
20260901010959 80 279 0.0 4.0 0.00 0.00 0.00 71 1010.0
20260901010503 80 172 0.0 4.0 0.00 0.00 0.00 71 1010.0
20260901005212 81 206 0.0 0.0 0.00 0.00 0.00 70 1010.0
20260901005031 81 206 0.0 0.0 0.00 0.00 0.00 70 1010.0
20260901005000 81 206 0.0 0.0 0.00 0.00 0.00 70 1010.0
20260901004500 81 206 0.0 0.0 0.00 0.00 0.00 69 1010.0
20260901003501 81 258 0.0 0.0 0.00 0.00 0.00 67 1009.9
20260901003212 82 258 0.0 0.0 0.00 0.00 0.00 66 1009.8
20260901003012 82 258 0.0 0.0 0.00 0.00 0.00 66 1009.8
20260901002501 82 258 0.0 3.0 0.00 0.00 0.00 65 1009.8
20260901001503 83 286 0.0 3.0 0.00 0.00 0.00 63 1009.8
20260831235624 84 286 0.0 4.0 0.00 0.00 0.00 62 1009.7
20260831235542 84 286 0.0 4.0 0.00 0.00 0.00 62 1009.7
20260831235500 84 286 0.0 4.0 0.00 0.00 0.00 62 1009.7
20260831235128 84 253 0.0 7.0 0.00 0.00 0.00 61 1009.7
20260831235050 84 253 0.0 7.0 0.00 0.00 0.00 61 1009.7
20260831235000 84 253 0.0 7.0 0.00 0.00 0.00 61 1009.7
20260831234750 85 232 0.0 8.0 0.00 0.00 0.00 61 1009.7
20260831234500 85 232 0.0 8.0 0.00 0.00 0.00 61 1009.7
20260831234005 84 344 0.0 0.0 0.00 0.00 0.00 57 1009.7
20260831233502 84 344 0.0 8.0 0.00 0.00 0.00 56 1009.7
20260831233001 85 8 0.0 5.0 0.00 0.00 0.00 56 1009.7
20260831232002 85 278 2.0 5.0 0.00 0.00 0.00 57 1009.6
20260831231500 85 338 6.0 8.0 0.00 0.00 0.00 56 1009.6
20260831231000 86 302 0.0 4.0 0.00 0.00 0.00 55 1009.5
20260831230502 86 7 0.0 7.0 0.00 0.00 0.00 54 1009.5
20260831230005 86 1 4.0 8.0 0.00 0.00 0.00 53 1009.6
20260831225533 86 326 3.0 8.0 0.00 0.00 0.00 54 1009.6
20260831225501 86 326 3.0 8.0 0.00 0.00 0.00 54 1009.6
20260831225000 86 272 6.0 8.0 0.00 0.00 0.00 53 1009.7
20260831224831 87 268 9.0 9.0 0.00 0.00 0.00 51 1009.5
20260831224505 87 358 5.0 9.0 0.00 0.00 0.00 51 1009.5
20260831224005 87 268 9.0 9.0 0.00 0.00 0.00 51 1009.5
20260831223502 87 261 2.0 9.0 0.00 0.00 0.00 50 1009.6
20260831223000 87 8 1.0 7.0 0.00 0.00 0.00 51 1009.5
20260831222506 88 355 0.0 5.0 0.00 0.00 0.00 51 1009.4
20260831221501 89 1 0.0 5.0 0.00 0.00 0.00 50 1009.4
20260831221002 88 260 6.0 6.0 0.00 0.00 0.00 49 1009.3
20260831220505 87 337 0.0 9.0 0.00 0.00 0.00 50 1009.2
20260831215505 89 288 4.0 6.0 0.00 0.00 0.00 50 1009.2
20260831214504 88 312 0.0 0.0 0.00 0.00 0.00 53 1009.1
20260831214132 88 312 0.0 7.0 0.00 0.00 0.00 52 1009.0
20260831214002 88 312 0.0 7.0 0.00 0.00 0.00 52 1009.0
20260831213519 89 306 0.0 6.0 0.00 0.00 0.00 51 1009.0
20260831212241 89 348 0.0 4.0 0.00 0.00 0.00 51 1008.9
20260831212002 89 348 0.0 4.0 0.00 0.00 0.00 51 1008.9
20260831211514 88 288 0.0 8.0 0.00 0.00 0.00 53 1009.0
20260831210502 88 358 0.0 5.0 0.00 0.00 0.00 51 1008.8
20260831205503 88 312 3.0 9.0 0.00 0.00 0.00 54 1008.9
20260831204509 87 312 0.0 6.0 0.00 0.00 0.00 55 1008.8
20260831202510 87 315 4.0 7.0 0.00 0.00 0.00 56 1008.9
20260831202010 87 344 2.0 9.0 0.00 0.00 0.00 56 1008.9
20260831201516 88 337 0.0 10.0 0.00 0.00 0.00 55 1009.0
20260831201306 87 247 0.0 7.0 0.00 0.00 0.00 56 1008.9
20260831201013 87 247 0.0 7.0 0.00 0.00 0.00 56 1008.9
20260831200010 87 319 2.0 7.0 0.00 0.00 0.00 58 1008.8
20260831195510 87 9 0.0 10.0 0.00 0.00 0.00 61 1008.7
20260831195012 86 4 0.0 0.0 0.00 0.00 0.00 63 1008.7
20260831194936 86 4 0.0 10.0 0.00 0.00 0.00 61 1008.7
20260831194509 86 4 0.0 10.0 0.00 0.00 0.00 61 1008.7
20260831193510 86 265 0.0 8.0 0.00 0.00 0.00 61 1008.7
20260831192324 86 28 0.0 0.0 0.00 0.00 0.00 62 1008.6
20260831192010 86 28 0.0 0.0 0.00 0.00 0.00 62 1008.6
20260831191509 86 28 0.0 7.0 0.00 0.00 0.00 62 1008.6
20260831185509 85 274 1.0 3.0 0.00 0.00 0.00 65 1008.6
20260831185013 85 358 0.0 9.0 0.00 0.00 0.00 64 1008.6
20260831184509 85 333 0.0 8.0 0.00 0.00 0.00 63 1008.5
20260831175731 83 350 3.0 7.0 0.00 0.00 0.00 72 1008.7
20260831175509 83 350 3.0 7.0 0.00 0.00 0.00 72 1008.7
20260831174509 83 67 3.0 6.0 0.00 0.00 0.00 77 1008.8
20260831173645 83 284 0.0 6.0 0.00 0.00 0.00 77 1008.8
20260831173559 83 284 0.0 6.0 0.00 0.00 0.00 77 1008.8
20260831173509 83 284 0.0 6.0 0.00 0.00 0.00 77 1008.8
20260831172010 82 57 5.0 9.0 0.00 0.00 0.00 79 1009.0
20260831171509 82 286 3.0 7.0 0.00 0.00 0.00 80 1009.1
20260831164511 81 340 4.0 10.0 0.00 0.00 0.00 79 1009.2
20260831164011 81 286 3.0 10.0 0.00 0.00 0.00 80 1009.1
20260831163009 81 279 4.0 11.0 0.00 0.00 0.00 80 1009.1
20260831162509 81 345 7.0 8.0 0.00 0.00 0.00 81 1009.0
20260831162009 81 1 5.0 8.0 0.00 0.00 0.00 80 1008.9
20260831161540 81 336 6.0 10.0 0.00 0.00 0.00 81 1008.9
20260831161509 81 336 6.0 10.0 0.00 0.00 0.00 81 1008.9
20260831161009 81 30 4.0 10.0 0.00 0.00 0.00 81 1008.7
20260831160517 81 333 7.0 8.0 0.00 0.00 0.00 81 1008.7
20260831155510 81 286 2.0 8.0 0.00 0.00 0.00 82 1008.7
20260831154518 81 334 3.0 8.0 0.00 0.00 0.00 83 1008.7
20260831154016 81 289 3.0 11.0 0.00 0.00 0.00 82 1008.8
20260831153602 81 282 2.0 9.0 0.00 0.00 0.00 83 1008.7
20260831153509 81 282 2.0 9.0 0.00 0.00 0.00 83 1008.7
20260831144523 79 285 3.0 6.0 0.00 0.00 0.00 90 1008.2
20260831144053 78 267 0.0 5.0 0.00 0.00 0.00 91 1008.1
20260831144021 78 267 0.0 5.0 0.00 0.00 0.00 91 1008.1